Weather History for KYKN - September, 2012

Change the Weather History Date:

Wednesday, September 19, 2012

  Actual Average Record
Temperature  
Mean Temperature 65 °F -  
Max Temperature 77 °F 76 °F 92 °F (1984)
Min Temperature 53 °F 50 °F 29 °F (1991)
Growing Degree Days 15 (Base 50)    
Moisture  
Dew Point 36 °F    
Average Humidity 36    
Maximum Humidity 67    
Minimum Humidity 18    
Precipitation  
Precipitation 0.00 in - - ()
Sea Level Pressure  
Sea Level Pressure 29.86 in    
Wind  
Wind Speed 13 mph (West)    
Max Wind Speed 32 mph    
Max Gust Speed 39 mph    
Visibility 10 miles    
Events      
Averages and records for this station are not official NWS values.
T = Trace of Precipitation, MM = Missing Value Source: NWS Daily Summary

Daily Weather History Graph

Daily Weather History Graph

Search for Another Location

Airport or City:

Trip Planner

Search our weather history database for the weather conditions in past years. The results will help you decide how hot, cold, wet, or windy it might be!

Date:

Astronomy

Sep. 19, 2012 Rise Set
Actual Time 7:14 AM CDT 7:31 PM CDT
Civil Twilight 6:45 AM CDT 7:59 PM CDT
Nautical Twilight 6:12 AM CDT 8:32 PM CDT
Astronomical Twilight 5:38 AM CDT 9:06 PM CDT
Moon 11:33 AM CDT (9/19) 9:33 PM CDT (9/19)
Length of Visible Light 13h 13m
Length of Day
12h 17m
Waxing Crescent, 17% of the Moon is Illuminated
Sep 19
Waxing Crescent
Sep 22
First Quarter
Sep 29
Full
Oct 8
Last Quarter
Oct 15
New

Hourly Weather History & Observations

Time (CDT) Temp. Dew Point Humidity Pressure Visibility Wind Dir Wind Speed Gust Speed Precip Events Conditions
12:15 AM 62.6 °F 39.2 °F 42% 29.82 in 10.0 mi South 8.1 mph - N/A   Clear
12:35 AM 62.6 °F 39.2 °F 42% 29.81 in 10.0 mi South 6.9 mph - N/A   Clear
12:55 AM 62.6 °F 42.8 °F 48% 29.81 in 10.0 mi South 10.4 mph - N/A   Clear
1:15 AM 64.4 °F 42.8 °F 45% 29.80 in 10.0 mi South 10.4 mph 18.4 mph N/A   Clear
1:35 AM 64.4 °F 42.8 °F 45% 29.80 in 10.0 mi SSW 18.4 mph 25.3 mph N/A   Clear
1:55 AM 62.6 °F 42.8 °F 48% 29.79 in 10.0 mi SSW 18.4 mph 27.6 mph N/A   Clear
2:15 AM 62.6 °F 44.6 °F 52% 29.79 in 10.0 mi SW 16.1 mph 23.0 mph N/A   Clear
2:35 AM 62.6 °F 44.6 °F 52% 29.79 in 10.0 mi SSW 16.1 mph - N/A   Clear
2:55 AM 62.6 °F 44.6 °F 52% 29.78 in 10.0 mi SSW 12.7 mph - N/A   Clear
3:15 AM 62.6 °F 42.8 °F 48% 29.77 in 10.0 mi SSW 15.0 mph - N/A   Clear
3:35 AM 62.6 °F 44.6 °F 52% 29.77 in 10.0 mi SW 11.5 mph - N/A   Clear
3:55 AM 62.6 °F 42.8 °F 48% 29.77 in 10.0 mi SW 6.9 mph - N/A   Clear
4:15 AM 60.8 °F 44.6 °F 55% 29.77 in 10.0 mi SW 6.9 mph - N/A   Clear
4:55 AM 60.8 °F 44.6 °F 55% 29.75 in 10.0 mi SW 9.2 mph - N/A   Clear
5:15 AM 60.8 °F 44.6 °F 55% 29.75 in 10.0 mi SW 9.2 mph - N/A   Clear
5:35 AM 60.8 °F 44.6 °F 55% 29.74 in 10.0 mi SW 11.5 mph - N/A   Clear
5:55 AM 60.8 °F 44.6 °F 55% 29.75 in 10.0 mi SW 9.2 mph - N/A   Clear
6:15 AM 60.8 °F 42.8 °F 52% 29.75 in 10.0 mi SW 8.1 mph - N/A   Clear
6:35 AM 60.8 °F 41.0 °F 48% 29.76 in 10.0 mi WSW 5.8 mph - N/A   Clear
6:55 AM 57.2 °F 41.0 °F 55% 29.76 in 10.0 mi Calm Calm - N/A   Clear
7:15 AM 55.4 °F 42.8 °F 63% 29.76 in 10.0 mi SSW 3.5 mph - N/A   Clear
7:35 AM 55.4 °F 41.0 °F 58% 29.76 in 10.0 mi Calm Calm - N/A   Clear
7:55 AM 53.6 °F 42.8 °F 67% 29.76 in 10.0 mi ESE 3.5 mph - N/A   Clear
8:15 AM 57.2 °F 44.6 °F 63% 29.76 in 10.0 mi Calm Calm - N/A   Clear
8:35 AM 59.0 °F 44.6 °F 59% 29.76 in 10.0 mi Calm Calm - N/A   Clear
8:55 AM 62.6 °F 44.6 °F 52% 29.76 in 10.0 mi NE 3.5 mph - N/A   Clear
9:15 AM 64.4 °F 44.6 °F 49% 29.77 in 10.0 mi WNW 3.5 mph - N/A   Clear
9:55 AM 69.8 °F 37.4 °F 31% 29.79 in 10.0 mi West 10.4 mph - N/A   Clear
10:15 AM 71.6 °F 37.4 °F 29% 29.79 in 10.0 mi WNW 13.8 mph - N/A   Clear
10:35 AM 73.4 °F 39.2 °F 29% 29.79 in 10.0 mi NW 13.8 mph 19.6 mph N/A   Clear
10:55 AM 73.4 °F 35.6 °F 25% 29.81 in 10.0 mi NW 21.9 mph 27.6 mph N/A   Clear
11:15 AM 73.4 °F 37.4 °F 27% 29.82 in 10.0 mi NW 23.0 mph 28.8 mph N/A   Clear
11:35 AM 71.6 °F 37.4 °F 29% 29.84 in 10.0 mi NW 23.0 mph 34.5 mph N/A   Clear
11:55 AM 73.4 °F 39.2 °F 29% 29.85 in 10.0 mi NW 24.2 mph 29.9 mph N/A   Clear
12:15 PM 75.2 °F 39.2 °F 27% 29.86 in 10.0 mi NNW 23.0 mph 32.2 mph N/A   Clear
12:35 PM 75.2 °F 37.4 °F 25% 29.87 in 10.0 mi NW 26.5 mph 33.4 mph N/A   Clear
12:55 PM 75.2 °F 37.4 °F 25% 29.88 in 10.0 mi NW 21.9 mph 28.8 mph N/A   Clear
1:15 PM 75.2 °F 37.4 °F 25% 29.88 in 10.0 mi NW 24.2 mph 31.1 mph N/A   Clear
1:35 PM 77.0 °F 35.6 °F 22% 29.88 in 10.0 mi WNW 27.6 mph 34.5 mph N/A   Clear
1:55 PM 75.2 °F 35.6 °F 24% 29.89 in 10.0 mi NW 23.0 mph 34.5 mph N/A   Clear
2:15 PM 77.0 °F 35.6 °F 22% 29.88 in 10.0 mi WNW 26.5 mph 36.8 mph N/A   Clear
2:35 PM 77.0 °F 33.8 °F 21% 29.88 in 10.0 mi NW 26.5 mph 36.8 mph N/A   Clear
2:55 PM 77.0 °F 33.8 °F 21% 29.88 in 10.0 mi WNW 23.0 mph 36.8 mph N/A   Clear
3:15 PM 77.0 °F 32.0 °F 19% 29.89 in 10.0 mi WNW 26.5 mph 39.1 mph N/A   Clear
3:35 PM 77.0 °F 33.8 °F 21% 29.89 in 10.0 mi WNW 23.0 mph 39.1 mph N/A   Clear
3:55 PM 77.0 °F 30.2 °F 18% 29.89 in 10.0 mi WNW 32.2 mph 39.1 mph N/A   Clear
4:15 PM 75.2 °F 32.0 °F 21% 29.89 in 10.0 mi NW 29.9 mph 35.7 mph N/A   Clear
4:35 PM 75.2 °F 30.2 °F 19% 29.90 in 10.0 mi NW 24.2 mph 35.7 mph N/A   Clear
4:55 PM 75.2 °F 30.2 °F 19% 29.91 in 10.0 mi WNW 24.2 mph 33.4 mph N/A   Clear
5:15 PM 75.2 °F 30.2 °F 19% 29.90 in 10.0 mi NW 20.7 mph 31.1 mph N/A   Clear
5:35 PM 73.4 °F 28.4 °F 19% 29.91 in 10.0 mi NW 18.4 mph 31.1 mph N/A   Clear
5:55 PM 73.4 °F 28.4 °F 19% 29.92 in 10.0 mi NW 19.6 mph 32.2 mph N/A   Clear
6:15 PM 71.6 °F 26.6 °F 19% 29.93 in 10.0 mi NW 23.0 mph 27.6 mph N/A   Clear
6:35 PM 71.6 °F 28.4 °F 20% 29.93 in 10.0 mi NW 18.4 mph 26.5 mph N/A   Clear
6:55 PM 69.8 °F 28.4 °F 21% 29.94 in 10.0 mi NW 15.0 mph - N/A   Clear
7:15 PM 68.0 °F 28.4 °F 23% 29.94 in 10.0 mi NW 16.1 mph 21.9 mph N/A   Clear
7:35 PM 66.2 °F 26.6 °F 23% 29.95 in 10.0 mi NW 12.7 mph - N/A   Clear
7:55 PM 64.4 °F 26.6 °F 24% 29.96 in 10.0 mi NW 9.2 mph - N/A   Clear
8:15 PM 62.6 °F 26.6 °F 26% 29.97 in 10.0 mi NW 8.1 mph - N/A   Clear
8:35 PM 60.8 °F 26.6 °F 27% 29.98 in 10.0 mi WNW 8.1 mph - N/A   Clear
8:55 PM 57.2 °F 26.6 °F 31% 29.98 in 10.0 mi WNW 8.1 mph - N/A   Clear
9:15 PM 59.0 °F 28.4 °F 31% 29.99 in 10.0 mi WNW 8.1 mph - N/A   Clear
9:35 PM 55.4 °F 26.6 °F 33% 29.99 in 10.0 mi WNW 6.9 mph - N/A   Clear
9:55 PM 57.2 °F 26.6 °F 31% 29.99 in 10.0 mi West 6.9 mph - N/A   Clear
10:15 PM 53.6 °F 26.6 °F 35% 30.00 in 10.0 mi WNW 5.8 mph - N/A   Clear
10:35 PM 53.6 °F 26.6 °F 35% 30.00 in 10.0 mi WNW 8.1 mph - N/A   Clear
10:55 PM 53.6 °F 26.6 °F 35% 30.00 in 10.0 mi WNW 6.9 mph - N/A   Clear
11:35 PM 53.6 °F 26.6 °F 35% 30.01 in 10.0 mi West 6.9 mph - N/A   Clear
11:55 PM 53.6 °F 24.8 °F 33% 30.01 in 10.0 mi West 8.1 mph - N/A   Clear